STARLINK-30049, 56294

Orbit data source: Space-Track

STARLINK-30049, 56294 is a payload satellite owned by SpaceX/Seattle (US) in LEO that was launched on Wed, 19 Apr 2023 UTC via an FALCON 9 launch vehicle from the Air Force Eastern Test Range (AFETR). Payload-class satellites include a variety of spacecraft equipped with specific instruments for various scientific and technological missions. These include communications satellites like Starlink; space stations such as the ISS; scientific satellites like the Hubble; Earth observation satellites from companies like Planet Labs, Umbra, and HawkEye 360; GPS; miniature CubeSats for education and research; and military/defense satellites.

Loading next visibility...
Identifier
56294, 2023-056J
Orbit
LEO
Country
Flag of USUS
Related business
Manufacturer
SpaceX/Seattle
Mission
Operational Commercial Communications
Bus & Motor
STARLINK V2M, Unknown motor
Mass
730 kg wet, ~700 kg dry
Launch date (UTC)
2023-04-19 (3 years ago)
Launch vehicle
FALCON 9
Launch site
Air Force Eastern Test Range (AFETR)
Object type
Payload
Rocket body
Debris
Shape & HBR
Box + 2 Pan, 17.7 m
Radar Cross Section
33.884 m², Large (>1 m²)

Expand to show TLE details & history
Last TLE update: 1 day ago

TLE from 1 day ago
0 STARLINK-30049
1 56294U 23056J   25348.62623539  .00001053  00000-0  93014-4 0  9990
2 56294  43.0059 312.8033 0001171 281.8048  78.2663 15.02528264147223
Epoch: 2025-12-14T15:01Z
TLE epoch observation values (Epoch: 2025-12-14T15:01:46.737Z)
Latitude
-0.00003°
Longitude
3.82208°
Altitude
558.717 km
Speed
7.584 km/s
True Right ascension
20h 51m 12s
True Declination
0° 00' 00"
Sunlit
Object was in daylight at epoch
Visualization orbit readout
Latitude
Unknown
Longitude
Unknown
Altitude
Unknown
Speed
Unknown
Apparent Right ascension
Unknown
Apparent Declination
Unknown
Sunlit
N/A
Visualization observer readout
Local Sidereal Time
13:23:48
Azimuth
Unknown
Elevation
Unknown
Doppler factor
Unknown
Orbital elements
Apogee altitude
561.839 km
Perigee altitude
560.214 km
Semi-major axis
6,939.163 km
Eccentricity
0.00012
Inclination
43.0059°
RAAN
312.8033°
Arg. of periapsis
281.8048°
True anomaly
78.27944°
Mean anomaly
78.2663°
Eccentric anomaly
78.27287°
Mean motion
3.75476 °/min
Orbital period
95.88 mins
BSTAR
0.000093014
Loading maneuver chart data...
Computing Atmospheric mass density...
Loading historical data...
Loading historical data...
Loading historical data...
Loading historical data...
Loading historical data...
Loading historical data...
Loading historical data...

Documentation

Showing up to 5 results
|